Location: Poprad
(49.0500°N, 20.3000°E)
Time: 05:52:43
(UTC+01:00)

ISS - Visible Passes

Search period start: 23 February 2018 00:00
Search period end: 05 March 2018 00:00
Orbit: 402 x 407 km, 51.6° (Epoch: 23 February)

Date Brightness Start Highest point End Pass type
(mag) Time Alt. Az. Time Alt. Az. Time Alt. Az.
27 Feb -1.2 05:33:45 10° S 05:36:12 20° SE 05:38:39 10° E visible
28 Feb -0.9 04:42:50 10° SSE 04:44:09 12° SE 04:45:27 10° ESE visible
01 Mar -2.5 05:24:48 10° SW 05:27:50 36° SSE 05:30:54 10° E visible
02 Mar -1.8 04:34:05 16° S 04:35:40 23° SE 04:38:20 10° E visible
03 Mar -1.0 03:44:04 14° SE 03:44:04 14° SE 03:45:24 10° ESE visible
03 Mar -3.6 05:16:44 13° WSW 05:19:33 66° SSE 05:22:48 10° ENE visible
04 Mar -3.0 04:26:36 37° S 04:27:16 43° SSE 04:30:24 10° ENE visible
